Snowfall_Accumulation
0.1 1.3 4.2 1.5 0.6 1.3 1.7 1.5 1.1 0.6 0.1 0.3 0.4 0.4 0.0 0.0 0.0 0.0 0.0 0.0 0.0 0.0 0.0 0.0 0.0 0.0 0.0 0.0 0.0 0.0 0.0 0.0 0.0 0.0 0.0 0.0 0.0 0.0 0.0 0.0 0.0 0.0 0.0 0.0
2.1 3.2 0.7 0.3 0.4 1.2 2.1 2.4 1.4 0.6 0.0 0.6 1.0 0.5 0.1 0.0 0.0 0.0 0.0 0.0 0.0 0.0 0.0 0.0 0.0 0.0 0.0 0.0 0.0 0.0 0.0 0.0 0.0 0.0 0.0 0.0 0.0 0.0 0.0 0.0 0.0 0.0 0.0 0.0
4.4 1.8 0.2 0.6 1.1 2.3 2.4 2.4 1.4 1.7 0.8 0.1 0.9 1.7 0.3 0.2 0.0 0.0 0.0 0.0 0.0 0.0 0.0 0.0 0.0 0.0 0.0 0.0 0.0 0.0 0.0 0.0 0.0 0.0 0.0 0.0 0.0 0.0 0.0 0.0 0.0 0.0 0.0 0.0
1.6 0.5 0.5 1.4 1.9 2.1 3.2 0.6 0.5 1.3 2.2 3.1 2.4 5.1 1.2 0.4 0.3 0.0 0.1 0.3 0.0 0.0 0.0 0.0 0.0 0.0 0.0 0.0 0.0 0.0 0.0 0.0 0.0 0.0 0.0 0.0 0.0 0.0 0.0 0.0 0.0 0.0 0.0 0.0
2.9 0.6 0.7 2.6 1.6 1.1 1.2 0.1 0.4 1.1 3.3 4.4 2.1 4.5 2.9 0.6 1.1 0.6 0.2 0.3 0.2 0.0 0.0 0.0 0.0 0.0 0.0 0.0 0.0 0.0 0.0 0.0 0.0 0.0 0.0 0.0 0.0 0.0 0.0 0.0 0.0 0.0 0.0 0.0
1.4 0.4 0.5 0.7 0.1 0.3 0.4 0.4 0.8 2.1 5.5 10.0 3.8 4.3 3.5 2.8 2.4 1.0 0.2 0.3 0.1 0.1 0.0 0.0 0.0 0.0 0.0 0.0 0.0 0.0 0.0 0.0 0.0 0.0 0.0 0.0 0.0 0.0 0.0 0.0 0.0 0.0 0.0 0.0
6.7 2.5 0.6 0.2 2.0 1.6 1.8 10.6 17.3 17.2 15.1 8.4 1.6 2.8 3.4 1.7 0.3 0.3 0.3 0.5 0.3 0.2 0.2 0.1 0.0 0.2 0.0 0.1 0.0 0.0 0.0 0.0 0.0 0.0 0.0 0.0 0.0 0.0 0.0 0.0 0.0 0.0 0.0 0.0
9.6 10.7 1.5 0.3 1.0 3.0 3.0 7.0 12.5 11.2 7.5 3.6 1.9 3.2 3.2 0.2 0.1 0.0 0.1 0.4 0.3 0.5 0.5 0.4 0.2 0.4 0.0 0.0 0.0 0.0 0.0 0.0 0.0 0.0 0.0 0.0 0.0 0.0 0.0 0.0 0.0 0.0 0.0 0.0
7.4 7.8 0.7 0.2 0.3 1.1 5.5 6.6 3.6 8.4 6.2 4.2 2.9 2.1 1.6 0.0 0.2 0.4 0.2 0.3 0.4 0.4 0.4 0.5 0.7 0.6 0.3 0.3 0.0 0.0 0.0 0.0 0.0 0.0 0.0 0.0 0.0 0.0 0.0 0.0 0.0 0.0 0.0 0.0
4.1 7.7 2.8 0.3 0.5 0.5 1.0 1.3 5.9 10.7 8.7 5.8 2.9 2.2 3.2 2.2 1.4 0.8 0.4 0.4 0.3 0.2 0.3 0.4 0.5 0.6 0.6 0.2 0.4 0.1 0.0 0.0 0.0 0.0 0.0 0.0 0.0 0.0 0.0 0.0 0.0 0.0 0.0 0.0
2.5 6.9 7.0 1.8 3.9 4.1 2.5 3.8 6.6 8.1 6.7 6.7 4.4 3.2 2.4 2.1 1.3 1.2 0.4 0.4 0.6 0.6 0.3 0.4 0.4 0.4 0.3 0.4 0.1 0.1 0.0 0.0 0.0 0.0 0.0 0.0 0.0 0.0 0.0 0.0 0.0 0.0 0.0 0.0
1.5 4.2 8.7 3.7 0.4 0.3 0.7 2.0 4.4 8.9 6.8 5.4 5.0 3.3 0.5 0.3 0.2 0.4 0.4 0.3 0.4 0.4 0.2 0.2 0.2 0.3 0.4 0.2 0.1 0.1 0.1 0.2 0.0 0.0 0.0 0.0 0.0 0.0 0.0 0.0 0.0 0.0 0.0 0.0
1.8 4.4 8.4 3.8 1.5 0.7 1.7 1.2 2.0 4.3 8.0 6.5 5.9 3.6 0.3 0.4 0.2 0.3 0.3 0.3 0.2 0.2 0.2 0.2 0.2 0.3 0.2 0.2 0.1 0.1 0.1 0.2 0.1 0.0 0.0 0.0 0.0 0.0 0.0 0.0 0.0 0.0 0.0 0.0
1.0 3.6 5.4 5.4 3.6 3.3 3.5 2.7 2.4 6.2 10.0 5.7 3.7 3.1 1.4 0.7 0.5 0.4 0.2 0.2 0.2 0.2 0.1 0.1 0.2 0.2 0.2 0.2 0.1 0.1 0.1 0.1 0.1 0.1 0.0 0.0 0.0 0.0 0.0 0.0 0.0 0.0 0.0 0.0
1.1 3.3 2.7 1.6 0.9 1.5 2.1 2.3 2.5 4.8 4.6 5.2 2.8 2.2 1.2 0.7 0.5 0.3 0.2 0.1 0.1 0.1 0.1 0.0 0.1 0.2 0.1 0.1 0.1 0.1 0.1 0.1 0.1 0.1 0.1 0.1 0.1 0.1 0.0 0.0 0.0 0.0 0.0 0.0
0.6 1.9 1.7 2.3 0.6 0.8 2.3 1.7 1.8 2.0 2.2 3.0 2.4 1.9 0.7 0.4 0.2 0.3 0.2 0.1 0.1 0.2 0.1 0.1 0.1 0.1 0.1 0.1 0.1 0.1 0.1 0.1 0.1 0.2 0.2 0.1 0.1 0.1 0.0 0.0 0.0 0.0 0.0 0.0
0.6 0.9 4.0 3.0 1.0 2.3 3.6 1.7 1.6 1.9 1.7 2.0 3.2 1.9 0.8 0.7 0.7 0.7 0.1 0.1 0.1 0.1 0.1 0.1 0.0 0.0 0.0 0.0 0.1 0.1 0.1 0.1 0.1 0.1 0.1 0.1 0.1 0.1 0.1 0.1 0.1 0.1 0.1 0.1
0.5 1.1 3.5 3.3 2.1 3.2 1.4 0.3 0.6 1.1 1.3 0.8 1.1 1.0 0.5 0.5 0.4 0.1 0.0 0.1 0.1 0.1 0.2 0.1 0.0 0.0 0.0 0.0 0.0 0.0 0.0 0.0 0.1 0.1 0.1 0.1 0.2 0.2 0.4 0.4 0.4 0.5 0.4 0.5
0.3 0.7 4.1 3.8 2.6 1.7 0.5 0.3 0.5 1.2 1.9 0.9 0.8 0.4 0.2 0.1 0.1 0.1 0.0 0.0 0.1 0.1 0.1 0.1 0.1 0.0 0.0 0.0 0.0 0.0 0.0 0.0 0.1 0.1 0.2 0.3 0.5 0.6 0.4 0.5 0.4 0.5 0.5 0.5
0.3 0.4 3.0 3.7 3.3 2.2 0.9 0.2 0.1 0.3 1.9 0.5 0.2 0.4 0.2 0.1 0.5 0.8 0.0 0.0 0.0 0.0 0.0 0.0 0.1 0.1 0.0 0.0 0.0 0.0 0.0 0.1 0.1 0.2 0.4 0.3 0.3 0.8 0.7 0.7 0.6 0.6 0.6 0.7
1.4 2.0 3.3 3.1 2.8 1.2 0.3 0.0 0.0 1.2 4.0 0.3 0.3 0.3 0.2 0.4 0.9 0.6 0.1 0.0 0.0 0.0 0.0 0.0 0.0 0.1 0.1 0.2 0.2 0.4 0.4 0.5 0.6 0.2 0.1 0.2 0.4 0.8 0.7 0.7 0.5 0.7 0.6 0.7
0.9 1.2 1.3 1.3 2.1 1.4 0.2 0.2 0.8 0.9 0.3 0.3 0.3 0.2 0.2 0.2 0.2 0.2 0.1 0.1 0.1 0.1 0.0 0.2 0.2 0.4 0.4 0.5 0.4 0.5 0.7 0.2 0.2 0.3 0.3 0.5 0.7 0.7 0.5 0.4 0.6 1.0 1.0 0.8
0.7 0.8 0.9 0.9 1.0 0.6 0.3 0.4 0.2 0.1 0.2 0.2 0.1 0.1 0.1 0.2 0.3 0.2 0.2 0.2 0.1 0.2 0.1 0.1 0.2 0.2 0.2 0.1 0.1 0.6 0.6 0.5 0.3 0.4 0.4 0.5 0.5 0.5 0.6 0.3 0.7 0.7 0.7 0.7
0.6 0.3 0.5 0.8 0.4 0.4 0.2 0.2 0.1 0.1 0.1 0.1 0.1 0.0 0.1 0.1 0.1 0.1 0.2 0.2 0.2 0.2 0.2 0.2 0.3 0.3 0.3 0.3 0.4 0.6 0.5 0.3 0.4 0.6 0.7 0.7 0.5 0.5 0.4 0.5 0.4 0.6 0.6 0.6
0.3 0.3 0.6 1.0 0.4 0.3 0.2 0.1 0.1 0.1 0.1 0.1 0.1 0.1 0.1 0.1 0.1 0.1 0.1 0.1 0.1 0.1 0.1 0.2 0.3 0.3 0.4 0.4 0.6 0.5 0.5 0.5 0.6 0.5 0.6 0.5 0.5 0.4 0.4 0.5 0.3 0.4 0.4 0.5
0.5 0.5 0.7 0.9 0.3 0.4 0.4 0.1 0.1 0.1 0.1 0.1 0.1 0.1 0.1 0.1 0.1 0.1 0.1 0.1 0.1 0.2 0.1 0.2 0.3 0.3 0.4 0.5 0.5 0.6 0.3 0.3 0.7 0.7 0.5 0.5 0.4 0.4 0.5 0.5 0.5 0.2 0.4 0.3